| time (UTC) | temp C | wind direction | speed KPH | gust KPH | rain 1hr cm | rain 24hr cm | rain mn cm | humidity % | barometer mb |
| 20260506024543 | 17 | 268 | 11.3 | 25.7 | 0.00 | 0.00 | 0.00 | 65 | 1012.7 |
| 20260506021532 | 18 | 262 | 14.5 | 30.6 | 0.00 | 0.00 | 0.00 | 62 | 1012.6 |
| 20260506020030 | 19 | 268 | 12.9 | 22.5 | 0.00 | 0.00 | 0.00 | 60 | 1012.5 |
| 20260506014531 | 20 | 269 | 12.9 | 24.1 | 0.00 | 0.00 | 0.00 | 57 | 1012.5 |
| 20260506013029 | 21 | 254 | 8.0 | 25.7 | 0.00 | 0.00 | 0.00 | 56 | 1012.4 |
| 20260506011606 | 21 | 251 | 11.3 | 29.0 | 0.00 | 0.00 | 0.00 | 55 | 1012.3 |
| 20260506010031 | 21 | 251 | 11.3 | 33.8 | 0.00 | 0.00 | 0.00 | 55 | 1012.3 |
| 20260506003029 | 21 | 262 | 16.1 | 29.0 | 0.00 | 0.00 | 0.00 | 56 | 1012.2 |
| 20260506000032 | 21 | 260 | 17.7 | 32.2 | 0.00 | 0.00 | 0.00 | 57 | 1012.3 |
| 20260505234529 | 21 | 265 | 19.3 | 33.8 | 0.00 | 0.00 | 0.00 | 56 | 1012.3 |
| 20260505233032 | 21 | 262 | 19.3 | 32.2 | 0.00 | 0.00 | 0.00 | 56 | 1012.5 |
| 20260505223029 | 21 | 271 | 17.7 | 33.8 | 0.00 | 0.00 | 0.00 | 56 | 1012.8 |
| 20260505221532 | 21 | 263 | 19.3 | 37.0 | 0.00 | 0.00 | 0.00 | 55 | 1013.0 |
| 20260505220030 | 21 | 261 | 17.7 | 30.6 | 0.00 | 0.00 | 0.00 | 56 | 1013.1 |
| 20260505214533 | 21 | 265 | 16.1 | 27.4 | 0.00 | 0.00 | 0.00 | 56 | 1013.2 |
| 20260505213033 | 21 | 265 | 19.3 | 35.4 | 0.00 | 0.00 | 0.00 | 56 | 1013.3 |
| 20260505211531 | 21 | 261 | 17.7 | 35.4 | 0.00 | 0.00 | 0.00 | 56 | 1013.4 |
| 20260505210031 | 20 | 267 | 16.1 | 30.6 | 0.00 | 0.00 | 0.00 | 56 | 1013.5 |
| 20260505204607 | 21 | 266 | 16.1 | 32.2 | 0.00 | 0.00 | 0.00 | 56 | 1013.6 |
| 20260505203033 | 21 | 266 | 16.1 | 29.0 | 0.00 | 0.00 | 0.00 | 56 | 1013.7 |
| 20260505201529 | 21 | 265 | 14.5 | 27.4 | 0.00 | 0.00 | 0.00 | 55 | 1013.8 |
| 20260505200033 | 21 | 261 | 14.5 | 29.0 | 0.00 | 0.00 | 0.00 | 54 | 1013.9 |
| 20260505194529 | 21 | 246 | 14.5 | 29.0 | 0.00 | 0.00 | 0.00 | 54 | 1014.0 |
| 20260505193030 | 20 | 252 | 14.5 | 24.1 | 0.00 | 0.00 | 0.00 | 56 | 1014.1 |
| 20260505191605 | 20 | 262 | 14.5 | 30.6 | 0.00 | 0.00 | 0.00 | 57 | 1014.1 |
| 20260505190032 | 20 | 262 | 16.1 | 27.4 | 0.00 | 0.00 | 0.00 | 57 | 1014.2 |
| 20260505183030 | 19 | 256 | 16.1 | 27.4 | 0.00 | 0.00 | 0.00 | 58 | 1014.4 |
| 20260505181540 | 18 | 258 | 12.9 | 25.7 | 0.00 | 0.00 | 0.00 | 59 | 1014.4 |
| 20260505180029 | 18 | 251 | 14.5 | 25.7 | 0.00 | 0.00 | 0.00 | 59 | 1014.4 |
| 20260505174601 | 18 | 249 | 17.7 | 32.2 | 0.00 | 0.00 | 0.00 | 61 | 1014.4 |
| 20260505173030 | 17 | 248 | 17.7 | 38.6 | 0.00 | 0.00 | 0.00 | 62 | 1014.4 |
| 20260505171528 | 17 | 248 | 17.7 | 35.4 | 0.00 | 0.00 | 0.00 | 64 | 1014.4 |
| 20260505170034 | 16 | 253 | 19.3 | 32.2 | 0.00 | 0.00 | 0.00 | 65 | 1014.4 |
| 20260505164531 | 16 | 251 | 17.7 | 29.0 | 0.00 | 0.00 | 0.00 | 66 | 1014.4 |
| 20260505163029 | 16 | 248 | 19.3 | 32.2 | 0.00 | 0.00 | 0.00 | 67 | 1014.3 |
| 20260505153030 | 15 | 240 | 16.1 | 33.8 | 0.00 | 0.00 | 0.00 | 73 | 1014.1 |
| 20260505151532 | 15 | 250 | 14.5 | 32.2 | 0.00 | 0.00 | 0.00 | 73 | 1014.1 |
| 20260505124608 | 13 | 236 | 14.5 | 37.0 | 0.00 | 0.00 | 0.00 | 78 | 1012.9 |
| 20260505123144 | 13 | 230 | 17.7 | 32.2 | 0.00 | 0.00 | 0.00 | 77 | 1012.8 |
| 20260505121530 | 13 | 243 | 16.1 | 33.8 | 0.00 | 0.00 | 0.00 | 77 | 1012.6 |
| 20260505120031 | 13 | 241 | 16.1 | 29.0 | 0.00 | 0.00 | 0.00 | 77 | 1012.5 |
| 20260505113034 | 14 | 230 | 14.5 | 32.2 | 0.00 | 0.00 | 0.00 | 76 | 1012.6 |
| 20260505110107 | 14 | 258 | 8.0 | 24.1 | 0.00 | 0.00 | 0.00 | 76 | 1012.3 |
| 20260505101531 | 15 | 223 | 19.3 | 32.2 | 0.00 | 0.00 | 0.00 | 74 | 1012.0 |
| 20260505100107 | 15 | 235 | 19.3 | 30.6 | 0.00 | 0.00 | 0.00 | 73 | 1011.9 |
| 20260505094530 | 15 | 235 | 14.5 | 33.8 | 0.00 | 0.00 | 0.00 | 73 | 1011.8 |
| 20260505093031 | 16 | 238 | 19.3 | 37.0 | 0.00 | 0.00 | 0.00 | 73 | 1011.8 |
| 20260505091529 | 16 | 238 | 19.3 | 37.0 | 0.00 | 0.00 | 0.00 | 72 | 1011.6 |
| 20260505090030 | 16 | 229 | 17.7 | 33.8 | 0.00 | 0.00 | 0.00 | 72 | 1011.3 |
| 20260505084531 | 16 | 232 | 12.9 | 29.0 | 0.00 | 0.00 | 0.00 | 73 | 1011.2 |
| 20260505083116 | 16 | 233 | 12.9 | 25.7 | 0.00 | 0.00 | 0.00 | 73 | 1011.3 |
| 20260505081530 | 16 | 259 | 8.0 | 22.5 | 0.00 | 0.00 | 0.00 | 73 | 1011.2 |
| 20260505080031 | 17 | 268 | 3.2 | 11.3 | 0.00 | 0.00 | 0.00 | 72 | 1011.2 |
| 20260505074530 | 17 | 270 | 6.4 | 11.3 | 0.00 | 0.00 | 0.00 | 71 | 1011.0 |
| 20260505073031 | 17 | 258 | 8.0 | 22.5 | 0.00 | 0.00 | 0.00 | 71 | 1010.9 |
| 20260505070107 | 17 | 267 | 9.7 | 20.9 | 0.00 | 0.00 | 0.00 | 69 | 1010.7 |
| 20260505064532 | 18 | 261 | 8.0 | 19.3 | 0.00 | 0.00 | 0.00 | 69 | 1010.6 |
| 20260505063029 | 18 | 268 | 9.7 | 17.7 | 0.00 | 0.00 | 0.00 | 68 | 1010.4 |
| 20260505061530 | 18 | 262 | 11.3 | 20.9 | 0.00 | 0.00 | 0.00 | 68 | 1010.4 |
| 20260505054530 | 18 | 266 | 11.3 | 17.7 | 0.00 | 0.00 | 0.00 | 66 | 1010.4 |
| 20260505053106 | 18 | 255 | 17.7 | 30.6 | 0.00 | 0.00 | 0.00 | 65 | 1010.2 |
| 20260505051531 | 18 | 256 | 17.7 | 32.2 | 0.00 | 0.00 | 0.00 | 64 | 1010.1 |
| 20260505050107 | 18 | 258 | 17.7 | 33.8 | 0.00 | 0.00 | 0.00 | 63 | 1010.0 |
| 20260505041531 | 19 | 259 | 19.3 | 32.2 | 0.00 | 0.00 | 0.00 | 60 | 1009.4 |
| 20260505033107 | 20 | 257 | 17.7 | 27.4 | 0.00 | 0.00 | 0.00 | 57 | 1009.1 |
| 20260505031528 | 20 | 255 | 19.3 | 27.4 | 0.00 | 0.00 | 0.00 | 56 | 1008.7 |
| 20260505030108 | 21 | 253 | 19.3 | 30.6 | 0.00 | 0.00 | 0.00 | 55 | 1008.5 |